This demonstration page uses our WeatherBlox Daily Observations layout. Learn more.

Left ArrowRight Arrow

Hourly Observations for July 14, 2021

Temp ( °F °C ) Dew Point ( °F °C ) Humidity (%) Winds ( mph kmh ) Pressure ( in mb ) Visibility ( mi km ) Precip ( " mm )
12:53 am 00:53 Clear 60 15.6 51 10.6 72 72 S 6 9 30.05 1018 10 16 0.00 0.00
1:53 am 01:53 Clear 54 12.2 50 10 87 87 SSW 6 9 30.06 1018 10 16 0.00 0.00
2:53 am 02:53 Clear 53 11.7 49 9.4 86 86 WSW 6 9 30.06 1018 10 16 0.00 0.00
3:53 am 03:53 Clear 51 10.6 50 10 96 96 SSW 7 11 30.07 1018 10 16 0.00 0.00
4:53 am 04:53 Clear 52 11.1 51 10.6 97 97 ENE 3 6 30.07 1018 10 16 0.00 0.00
5:53 am 05:53 Sunny 50 10 49 9.4 96 96 Calm 30.08 1019 8 13 0.00 0.00
6:53 am 06:53 Sunny 55 12.8 51 10.6 87 87 Calm 30.07 1018 10 16 0.00 0.00
7:53 am 07:53 Sunny 62 16.7 54 12.2 75 75 E 7 11 30.05 1018 10 16 0.00 0.00
8:53 am 08:53 Sunny 67 19.4 55 12.8 66 66 ENE 7 11 30.04 1017 10 16 0.00 0.00
9:53 am 09:53 Sunny 72 22.2 54 12.2 53 53 E 6 9 30.03 1017 10 16 0.00 0.00
10:53 am 10:53 Sunny 77 25 50 10 39 39 VRB 3 6 30.00 1016 10 16 0.00 0.00
11:53 am 11:53 Sunny 79 26.1 49 9.4 35 35 Calm 29.97 1015 10 16 0.00 0.00
12:53 pm 12:53 Sunny 82 27.8 49 9.4 32 32 VRB 3 6 29.95 1014 10 16 0.00 0.00
1:53 pm 13:53 Sunny 86 30 48 8.9 27 27 SSW 8 13 29.93 1014 10 16 0.00 0.00
2:53 pm 14:53 Sunny 87 30.6 47 8.3 25 25 undefined N/A 29.91 1013 10 16 0.00 0.00
3:53 pm 15:53 Sunny 88 31.1 47 8.3 24 24 Calm 29.89 1012 10 16 0.00 0.00
4:53 pm 16:53 Sunny 89 31.7 44 6.7 21 21 Calm 29.87 1012 10 16 0.00 0.00
5:53 pm 17:53 Sunny 89 31.7 42 5.6 19 19 Calm 29.85 1011 10 16 0.00 0.00
6:53 pm 18:53 Sunny 89 31.7 43 6.1 20 20 S 5 7 29.83 1010 10 16 0.00 0.00
7:53 pm 19:53 Sunny 86 30 46 7.8 25 25 S 7 11 29.82 1010 10 16 0.00 0.00
8:53 pm 20:53 Sunny 79 26.1 47 8.3 32 32 SSE 6 9 29.81 1009 10 16 0.00 0.00
9:53 pm 21:53 Clear 70 21.1 48 8.9 46 46 SE 6 9 29.82 1010 10 16 0.00 0.00
10:53 pm 22:53 Clear 70 21.1 48 8.9 46 46 Calm 29.81 1009 10 16 0.00 0.00
11:53 pm 23:53 Clear 74 23.3 47 8.3 38 38 SE 5 7 29.79 1009 10 16 0.00 0.00

Powered by AerisWeather